| time (UTC) | temp F | wind direction | speed MPH | gust MPH | rain 1hr in | rain 24hr in | rain mn in | humidity % | barometer mb |
| 20260507045041 | 56 | 59 | 1.0 | 2.0 | 0.00 | 0.07 | 0.07 | 84 | 1017.7 |
| 20260507044522 | 56 | 65 | 1.0 | 2.0 | 0.00 | 0.07 | 0.07 | 84 | 1017.6 |
| 20260507044105 | 56 | 74 | 0.0 | 1.0 | 0.00 | 0.07 | 0.07 | 84 | 1017.8 |
| 20260507043546 | 56 | 80 | 0.0 | 2.0 | 0.00 | 0.07 | 0.07 | 84 | 1017.8 |
| 20260507043027 | 56 | 69 | 0.0 | 1.0 | 0.00 | 0.07 | 0.07 | 83 | 1017.7 |
| 20260507042609 | 56 | 72 | 1.0 | 2.0 | 0.00 | 0.07 | 0.07 | 83 | 1017.9 |
| 20260507042049 | 57 | 74 | 1.0 | 3.0 | 0.00 | 0.07 | 0.07 | 82 | 1017.9 |
| 20260507041551 | 57 | 76 | 2.0 | 2.0 | 0.00 | 0.07 | 0.07 | 82 | 1017.9 |
| 20260507041113 | 57 | 74 | 2.0 | 5.0 | 0.00 | 0.07 | 0.07 | 82 | 1017.8 |
| 20260507040553 | 57 | 66 | 1.0 | 2.0 | 0.00 | 0.07 | 0.07 | 82 | 1018.0 |
| 20260507040034 | 57 | 68 | 1.0 | 3.0 | 0.00 | 0.07 | 0.07 | 81 | 1017.9 |
| 20260507035617 | 57 | 68 | 1.0 | 2.0 | 0.00 | 0.07 | 0.07 | 81 | 1018.0 |
| 20260507035057 | 57 | 77 | 1.0 | 2.0 | 0.00 | 0.07 | 0.07 | 81 | 1018.0 |
| 20260507034535 | 57 | 60 | 2.0 | 3.0 | 0.00 | 0.07 | 0.07 | 81 | 1018.0 |
| 20260507034122 | 57 | 71 | 2.0 | 3.0 | 0.00 | 0.07 | 0.07 | 81 | 1017.8 |
| 20260507033601 | 57 | 73 | 3.0 | 6.0 | 0.00 | 0.07 | 0.07 | 80 | 1017.9 |
| 20260507033042 | 58 | 73 | 1.0 | 3.0 | 0.00 | 0.07 | 0.07 | 80 | 1017.8 |
| 20260507032522 | 58 | 64 | 2.0 | 2.0 | 0.00 | 0.07 | 0.07 | 80 | 1017.8 |
| 20260507032035 | 58 | 73 | 3.0 | 6.0 | 0.00 | 0.07 | 0.07 | 79 | 1017.8 |
| 20260507031633 | 58 | 30 | 2.0 | 5.0 | 0.00 | 0.07 | 0.07 | 79 | 1017.7 |
| 20260507031057 | 58 | 76 | 2.0 | 3.0 | 0.00 | 0.07 | 0.07 | 79 | 1017.8 |
| 20260507030555 | 59 | 50 | 2.0 | 3.0 | 0.00 | 0.07 | 0.07 | 79 | 1017.8 |
| 20260507030121 | 59 | 62 | 1.0 | 3.0 | 0.00 | 0.07 | 0.07 | 79 | 1017.7 |
| 20260507025601 | 59 | 40 | 2.0 | 5.0 | 0.00 | 0.07 | 0.07 | 78 | 1017.7 |
| 20260507025046 | 59 | 47 | 1.0 | 3.0 | 0.00 | 0.07 | 0.07 | 78 | 1017.6 |
| 20260507024553 | 59 | 38 | 2.0 | 3.0 | 0.00 | 0.07 | 0.07 | 78 | 1017.5 |
| 20260507024121 | 59 | 40 | 2.0 | 5.0 | 0.00 | 0.07 | 0.07 | 78 | 1017.4 |
| 20260507023601 | 59 | 33 | 3.0 | 6.0 | 0.00 | 0.07 | 0.07 | 77 | 1017.4 |
| 20260507023041 | 59 | 43 | 2.0 | 3.0 | 0.00 | 0.07 | 0.07 | 78 | 1017.3 |
| 20260507022522 | 59 | 57 | 2.0 | 3.0 | 0.00 | 0.07 | 0.07 | 78 | 1017.2 |
| 20260507022105 | 60 | 42 | 1.0 | 2.0 | 0.00 | 0.07 | 0.07 | 77 | 1017.2 |
| 20260507021546 | 60 | 38 | 3.0 | 6.0 | 0.00 | 0.07 | 0.07 | 77 | 1017.1 |
| 20260507021026 | 60 | 31 | 2.0 | 5.0 | 0.00 | 0.07 | 0.07 | 77 | 1016.9 |
| 20260507020609 | 60 | 47 | 2.0 | 3.0 | 0.00 | 0.07 | 0.07 | 77 | 1016.8 |
| 20260507020114 | 60 | 56 | 2.0 | 3.0 | 0.00 | 0.07 | 0.07 | 76 | 1016.9 |
| 20260507015601 | 60 | 37 | 3.0 | 6.0 | 0.00 | 0.07 | 0.07 | 76 | 1016.8 |
| 20260507015101 | 61 | 56 | 2.0 | 6.0 | 0.00 | 0.07 | 0.07 | 77 | 1016.6 |
| 20260507014522 | 61 | 44 | 2.0 | 5.0 | 0.00 | 0.07 | 0.07 | 77 | 1016.4 |
| 20260507014034 | 61 | 31 | 3.0 | 7.0 | 0.00 | 0.07 | 0.07 | 77 | 1016.3 |
| 20260507013601 | 61 | 49 | 2.0 | 7.0 | 0.00 | 0.07 | 0.07 | 77 | 1016.3 |
| 20260507013042 | 61 | 41 | 2.0 | 3.0 | 0.00 | 0.07 | 0.07 | 76 | 1016.0 |
| 20260507012542 | 61 | 51 | 2.0 | 3.0 | 0.00 | 0.07 | 0.07 | 76 | 1015.9 |
| 20260507012049 | 61 | 40 | 2.0 | 3.0 | 0.00 | 0.07 | 0.07 | 76 | 1015.8 |
| 20260507011531 | 61 | 43 | 2.0 | 5.0 | 0.00 | 0.07 | 0.07 | 75 | 1015.7 |
| 20260507011042 | 62 | 37 | 2.0 | 6.0 | 0.00 | 0.07 | 0.07 | 75 | 1015.6 |
| 20260507010522 | 62 | 45 | 2.0 | 5.0 | 0.00 | 0.07 | 0.07 | 75 | 1015.6 |
| 20260507010035 | 62 | 46 | 2.0 | 3.0 | 0.00 | 0.07 | 0.07 | 75 | 1015.5 |
| 20260507005617 | 62 | 53 | 3.0 | 5.0 | 0.00 | 0.07 | 0.07 | 74 | 1015.5 |
| 20260507005041 | 62 | 39 | 2.0 | 5.0 | 0.00 | 0.07 | 0.07 | 74 | 1015.4 |
| 20260507004609 | 62 | 35 | 3.0 | 6.0 | 0.00 | 0.07 | 0.07 | 74 | 1015.4 |
| 20260507004049 | 62 | 43 | 3.0 | 5.0 | 0.00 | 0.07 | 0.07 | 74 | 1015.3 |
| 20260507003530 | 63 | 54 | 2.0 | 5.0 | 0.00 | 0.07 | 0.07 | 74 | 1015.3 |
| 20260507003113 | 63 | 45 | 2.0 | 5.0 | 0.00 | 0.07 | 0.07 | 74 | 1015.3 |
| 20260507002553 | 63 | 21 | 3.0 | 6.0 | 0.00 | 0.07 | 0.07 | 73 | 1015.1 |
| 20260507002034 | 63 | 41 | 3.0 | 6.0 | 0.00 | 0.07 | 0.07 | 73 | 1015.1 |
| 20260507001617 | 64 | 37 | 2.0 | 3.0 | 0.00 | 0.07 | 0.07 | 74 | 1014.9 |
| 20260507001041 | 64 | 53 | 2.0 | 6.0 | 0.00 | 0.07 | 0.07 | 72 | 1015.0 |
| 20260507000629 | 64 | 51 | 3.0 | 5.0 | 0.00 | 0.07 | 0.07 | 72 | 1014.9 |
| 20260507000105 | 64 | 44 | 2.0 | 3.0 | 0.00 | 0.07 | 0.07 | 72 | 1014.8 |
| 20260506235535 | 64 | 36 | 3.0 | 5.0 | 0.00 | 0.07 | 0.07 | 71 | 1014.7 |
| 20260506235035 | 65 | 26 | 4.0 | 8.0 | 0.00 | 0.07 | 0.07 | 71 | 1014.5 |
| 20260506234535 | 65 | 50 | 2.0 | 5.0 | 0.00 | 0.07 | 0.07 | 71 | 1014.6 |
| 20260506234034 | 65 | 30 | 3.0 | 7.0 | 0.00 | 0.07 | 0.07 | 70 | 1014.5 |
| 20260506233555 | 65 | 32 | 3.0 | 5.0 | 0.00 | 0.07 | 0.07 | 70 | 1014.5 |
| 20260506233034 | 66 | 19 | 3.0 | 6.0 | 0.00 | 0.07 | 0.07 | 70 | 1014.4 |
| 20260506232534 | 66 | 38 | 3.0 | 8.0 | 0.00 | 0.07 | 0.07 | 70 | 1014.3 |
| 20260506232034 | 66 | 37 | 3.0 | 6.0 | 0.00 | 0.07 | 0.07 | 69 | 1014.3 |
| 20260506231555 | 67 | 31 | 3.0 | 5.0 | 0.00 | 0.07 | 0.07 | 68 | 1014.4 |
| 20260506231055 | 67 | 23 | 2.0 | 5.0 | 0.00 | 0.07 | 0.07 | 68 | 1014.2 |
| 20260506230553 | 66 | 52 | 3.0 | 7.0 | 0.00 | 0.07 | 0.07 | 67 | 1014.3 |
| 20260506230034 | 67 | 31 | 3.0 | 8.0 | 0.00 | 0.07 | 0.07 | 68 | 1014.2 |
| 20260506225601 | 67 | 24 | 2.0 | 7.0 | 0.00 | 0.07 | 0.07 | 67 | 1014.2 |
| 20260506225034 | 67 | 62 | 2.0 | 3.0 | 0.00 | 0.07 | 0.07 | 67 | 1014.2 |
| 20260506224535 | 67 | 43 | 3.0 | 6.0 | 0.00 | 0.07 | 0.07 | 67 | 1014.0 |
| 20260506224121 | 67 | 22 | 3.0 | 6.0 | 0.00 | 0.07 | 0.07 | 68 | 1014.0 |
| 20260506223601 | 66 | 20 | 3.0 | 7.0 | 0.00 | 0.07 | 0.07 | 68 | 1014.0 |
| 20260506223035 | 67 | 43 | 3.0 | 5.0 | 0.00 | 0.07 | 0.07 | 68 | 1014.0 |
| 20260506222626 | 67 | 46 | 3.0 | 6.0 | 0.00 | 0.07 | 0.07 | 68 | 1013.9 |
| 20260506222134 | 67 | 44 | 3.0 | 3.0 | 0.00 | 0.07 | 0.07 | 68 | 1013.9 |
| 20260506221602 | 67 | 54 | 2.0 | 5.0 | 0.00 | 0.07 | 0.07 | 69 | 1013.9 |
| 20260506221034 | 67 | 36 | 3.0 | 7.0 | 0.00 | 0.07 | 0.07 | 67 | 1014.0 |
| 20260506220542 | 68 | 57 | 2.0 | 5.0 | 0.00 | 0.07 | 0.07 | 67 | 1013.9 |
| 20260506220050 | 68 | 11 | 4.0 | 8.0 | 0.00 | 0.07 | 0.07 | 67 | 1014.0 |
| 20260506215554 | 68 | 55 | 3.0 | 6.0 | 0.00 | 0.07 | 0.07 | 67 | 1014.0 |
| 20260506215034 | 68 | 24 | 2.0 | 7.0 | 0.00 | 0.07 | 0.07 | 66 | 1014.0 |
| 20260506214609 | 68 | 21 | 2.0 | 5.0 | 0.00 | 0.07 | 0.07 | 67 | 1013.9 |
| 20260506214050 | 68 | 50 | 3.0 | 6.0 | 0.00 | 0.07 | 0.07 | 67 | 1013.9 |
| 20260506213531 | 68 | 43 | 4.0 | 6.0 | 0.00 | 0.07 | 0.07 | 66 | 1013.8 |
| 20260506213133 | 69 | 12 | 2.0 | 6.0 | 0.00 | 0.07 | 0.07 | 67 | 1013.9 |
| 20260506212630 | 68 | 65 | 1.0 | 3.0 | 0.00 | 0.07 | 0.07 | 67 | 1013.8 |
| 20260506212123 | 67 | 62 | 2.0 | 3.0 | 0.00 | 0.07 | 0.07 | 67 | 1014.0 |
| 20260506211602 | 67 | 45 | 2.0 | 6.0 | 0.00 | 0.07 | 0.07 | 69 | 1014.1 |
| 20260506211034 | 67 | 76 | 4.0 | 9.0 | 0.00 | 0.07 | 0.07 | 67 | 1014.3 |
| 20260506210522 | 67 | 75 | 1.0 | 2.0 | 0.00 | 0.07 | 0.07 | 68 | 1014.4 |
| 20260506210105 | 67 | 47 | 2.0 | 6.0 | 0.00 | 0.07 | 0.07 | 68 | 1014.2 |
| 20260506205534 | 66 | 35 | 3.0 | 6.0 | 0.00 | 0.07 | 0.07 | 68 | 1014.2 |
| 20260506205035 | 66 | 36 | 3.0 | 6.0 | 0.00 | 0.07 | 0.07 | 69 | 1014.1 |
| 20260506204535 | 66 | 54 | 3.0 | 7.0 | 0.00 | 0.07 | 0.07 | 69 | 1014.1 |
| 20260506204034 | 66 | 38 | 2.0 | 5.0 | 0.00 | 0.07 | 0.07 | 70 | 1014.3 |
| 20260506203617 | 65 | 55 | 3.0 | 6.0 | 0.00 | 0.07 | 0.07 | 70 | 1014.3 |
| 20260506203042 | 65 | 65 | 3.0 | 6.0 | 0.00 | 0.07 | 0.07 | 70 | 1014.5 |
| 20260506202534 | 65 | 67 | 2.0 | 5.0 | 0.00 | 0.07 | 0.07 | 69 | 1014.4 |
| 20260506202055 | 66 | 76 | 1.0 | 2.0 | 0.00 | 0.07 | 0.07 | 69 | 1014.5 |
| 20260506201531 | 65 | 73 | 1.0 | 2.0 | 0.00 | 0.07 | 0.07 | 72 | 1014.5 |
| 20260506201138 | 64 | 76 | 1.0 | 3.0 | 0.00 | 0.07 | 0.07 | 71 | 1014.7 |
| 20260506200534 | 64 | 94 | 1.0 | 3.0 | 0.00 | 0.07 | 0.07 | 72 | 1014.8 |
| 20260506200034 | 64 | 72 | 3.0 | 7.0 | 0.00 | 0.07 | 0.07 | 70 | 1014.9 |
| 20260506195535 | 65 | 48 | 2.0 | 5.0 | 0.00 | 0.07 | 0.07 | 69 | 1014.7 |
| 20260506195035 | 65 | 66 | 1.0 | 2.0 | 0.00 | 0.07 | 0.07 | 68 | 1014.9 |
| 20260506194535 | 65 | 53 | 1.0 | 5.0 | 0.00 | 0.07 | 0.07 | 69 | 1014.9 |
| 20260506194054 | 65 | 57 | 1.0 | 3.0 | 0.00 | 0.07 | 0.07 | 69 | 1015.1 |
| 20260506193534 | 66 | 58 | 1.0 | 3.0 | 0.00 | 0.07 | 0.07 | 70 | 1015.2 |
| 20260506193035 | 64 | 75 | 0.0 | 1.0 | 0.00 | 0.07 | 0.07 | 69 | 1015.2 |
| 20260506192534 | 64 | 63 | 2.0 | 3.0 | 0.00 | 0.07 | 0.07 | 69 | 1015.3 |
| 20260506192035 | 64 | 64 | 1.0 | 3.0 | 0.00 | 0.07 | 0.07 | 68 | 1015.2 |
| 20260506191535 | 65 | 40 | 3.0 | 5.0 | 0.00 | 0.07 | 0.07 | 69 | 1015.2 |
| 20260506191115 | 64 | 62 | 1.0 | 2.0 | 0.00 | 0.07 | 0.07 | 71 | 1015.1 |
| 20260506190535 | 63 | 64 | 1.0 | 2.0 | 0.00 | 0.07 | 0.07 | 71 | 1015.1 |
| 20260506190034 | 63 | 88 | 2.0 | 7.0 | 0.00 | 0.07 | 0.07 | 71 | 1015.0 |
| 20260506185534 | 62 | 83 | 2.0 | 5.0 | 0.00 | 0.07 | 0.07 | 73 | 1014.7 |
| 20260506185034 | 61 | 33 | 2.0 | 5.0 | 0.00 | 0.07 | 0.07 | 74 | 1014.5 |
| 20260506184535 | 61 | 50 | 3.0 | 6.0 | 0.00 | 0.07 | 0.07 | 74 | 1014.8 |
| 20260506184018 | 61 | 29 | 2.0 | 5.0 | 0.00 | 0.07 | 0.07 | 75 | 1014.9 |
| 20260506183545 | 61 | 49 | 2.0 | 9.0 | 0.00 | 0.07 | 0.07 | 74 | 1014.9 |
| 20260506183055 | 61 | 58 | 2.0 | 3.0 | 0.00 | 0.07 | 0.07 | 74 | 1014.8 |
| 20260506182535 | 61 | 33 | 2.0 | 6.0 | 0.00 | 0.07 | 0.07 | 75 | 1014.8 |
| 20260506182035 | 60 | 33 | 2.0 | 6.0 | 0.00 | 0.07 | 0.07 | 76 | 1014.7 |
| 20260506181535 | 60 | 29 | 3.0 | 6.0 | 0.00 | 0.07 | 0.07 | 75 | 1014.9 |
| 20260506181113 | 60 | 11 | 3.0 | 6.0 | 0.00 | 0.07 | 0.07 | 76 | 1014.9 |
| 20260506180634 | 59 | 26 | 2.0 | 6.0 | 0.00 | 0.07 | 0.07 | 77 | 1015.1 |
| 20260506180035 | 58 | 20 | 2.0 | 5.0 | 0.00 | 0.07 | 0.07 | 78 | 1015.2 |
| 20260506175555 | 58 | 34 | 3.0 | 7.0 | 0.00 | 0.07 | 0.07 | 79 | 1015.3 |
| 20260506175114 | 57 | 35 | 2.0 | 5.0 | 0.00 | 0.07 | 0.07 | 80 | 1015.2 |
| 20260506174554 | 57 | 52 | 3.0 | 8.0 | 0.00 | 0.07 | 0.07 | 80 | 1015.4 |
| 20260506174034 | 56 | 32 | 3.0 | 7.0 | 0.00 | 0.07 | 0.07 | 81 | 1015.4 |
| 20260506173534 | 57 | 31 | 4.0 | 7.0 | 0.00 | 0.07 | 0.07 | 82 | 1015.3 |
| 20260506173055 | 55 | 40 | 4.0 | 10.0 | 0.00 | 0.07 | 0.07 | 84 | 1015.1 |
| 20260506172535 | 55 | 6 | 4.0 | 8.0 | 0.00 | 0.07 | 0.07 | 85 | 1015.1 |
| 20260506172034 | 54 | 43 | 3.0 | 6.0 | 0.00 | 0.07 | 0.07 | 87 | 1015.3 |
| 20260506171615 | 53 | 25 | 2.0 | 5.0 | 0.00 | 0.07 | 0.07 | 87 | 1015.5 |
| 20260506171034 | 53 | 26 | 3.0 | 8.0 | 0.00 | 0.07 | 0.07 | 88 | 1015.5 |
| 20260506170534 | 53 | 26 | 3.0 | 6.0 | 0.00 | 0.07 | 0.07 | 91 | 1015.4 |
| 20260506170035 | 52 | 73 | 2.0 | 6.0 | 0.00 | 0.07 | 0.07 | 92 | 1015.7 |
| 20260506165530 | 52 | 58 | 1.0 | 2.0 | 0.00 | 0.07 | 0.07 | 94 | 1015.7 |
| 20260506165113 | 51 | 40 | 2.0 | 6.0 | 0.00 | 0.07 | 0.07 | 94 | 1015.6 |
| 20260506164554 | 51 | 40 | 1.0 | 3.0 | 0.00 | 0.07 | 0.07 | 96 | 1015.5 |
| 20260506164035 | 51 | 52 | 2.0 | 5.0 | 0.00 | 0.07 | 0.07 | 96 | 1015.4 |
| 20260506163534 | 51 | 41 | 1.0 | 3.0 | 0.00 | 0.07 | 0.07 | 97 | 1015.4 |
| 20260506163055 | 51 | 43 | 2.0 | 5.0 | 0.00 | 0.07 | 0.07 | 97 | 1015.3 |
| 20260506162534 | 51 | 44 | 2.0 | 5.0 | 0.00 | 0.07 | 0.07 | 98 | 1015.2 |
| 20260506162034 | 51 | 45 | 2.0 | 3.0 | 0.00 | 0.07 | 0.07 | 97 | 1015.2 |
| 20260506161534 | 51 | 27 | 2.0 | 5.0 | 0.01 | 0.07 | 0.07 | 97 | 1015.2 |
| 20260506161034 | 51 | 47 | 1.0 | 3.0 | 0.02 | 0.07 | 0.07 | 97 | 1015.1 |
| 20260506160535 | 52 | 61 | 1.0 | 3.0 | 0.04 | 0.07 | 0.07 | 97 | 1015.1 |
| 20260506160035 | 51 | 47 | 2.0 | 3.0 | 0.04 | 0.07 | 0.07 | 97 | 1015.0 |
| 20260506155535 | 51 | 32 | 2.0 | 6.0 | 0.05 | 0.07 | 0.07 | 97 | 1015.2 |
| 20260506155034 | 51 | 54 | 2.0 | 5.0 | 0.06 | 0.07 | 0.07 | 97 | 1015.3 |
| 20260506154534 | 51 | 61 | 1.0 | 2.0 | 0.06 | 0.07 | 0.07 | 97 | 1015.6 |
| 20260506154034 | 51 | 31 | 1.0 | 2.0 | 0.06 | 0.07 | 0.07 | 97 | 1015.7 |
| 20260506153534 | 51 | 29 | 2.0 | 3.0 | 0.06 | 0.07 | 0.07 | 97 | 1015.3 |
| 20260506153035 | 51 | 50 | 2.0 | 2.0 | 0.06 | 0.07 | 0.07 | 97 | 1015.0 |
| 20260506152535 | 51 | 34 | 3.0 | 7.0 | 0.07 | 0.07 | 0.07 | 97 | 1015.0 |
| 20260506152034 | 51 | 40 | 2.0 | 3.0 | 0.07 | 0.07 | 0.07 | 97 | 1016.1 |
| 20260506151638 | 51 | 61 | 0.0 | 1.0 | 0.06 | 0.06 | 0.06 | 97 | 1016.6 |
| 20260506151058 | 51 | 66 | 1.0 | 2.0 | 0.05 | 0.05 | 0.05 | 96 | 1016.8 |
| 20260506150534 | 51 | 43 | 1.0 | 2.0 | 0.03 | 0.03 | 0.03 | 95 | 1017.3 |
| 20260506150034 | 51 | 81 | 0.0 | 1.0 | 0.03 | 0.03 | 0.03 | 94 | 1017.4 |
| 20260506145535 | 51 | 112 | 0.0 | 1.0 | 0.02 | 0.02 | 0.02 | 94 | 1017.4 |
| 20260506145034 | 51 | 65 | 0.0 | 1.0 | 0.01 | 0.01 | 0.01 | 93 | 1017.0 |
| 20260506144535 | 51 | 55 | 1.0 | 2.0 | 0.01 | 0.01 | 0.01 | 93 | 1016.5 |
| 20260506144035 | 51 | 336 | 1.0 | 5.0 | 0.01 | 0.01 | 0.01 | 93 | 1016.1 |
| 20260506143535 | 51 | 53 | 2.0 | 3.0 | 0.01 | 0.01 | 0.01 | 94 | 1015.1 |
| 20260506143054 | 51 | 39 | 1.0 | 3.0 | 0.01 | 0.01 | 0.01 | 93 | 1015.1 |
| 20260506142535 | 51 | 64 | 0.0 | 1.0 | 0.00 | 0.00 | 0.00 | 93 | 1015.5 |
| 20260506142034 | 51 | 72 | 1.0 | 1.0 | 0.00 | 0.00 | 0.00 | 93 | 1015.1 |
| 20260506141618 | 51 | 39 | 2.0 | 3.0 | 0.00 | 0.00 | 0.00 | 92 | 1015.3 |
| 20260506141058 | 52 | 15 | 1.0 | 2.0 | 0.00 | 0.00 | 0.00 | 92 | 1015.6 |
| 20260506140535 | 52 | 49 | 2.0 | 5.0 | 0.00 | 0.00 | 0.00 | 90 | 1015.5 |
| 20260506140055 | 52 | 358 | 2.0 | 6.0 | 0.00 | 0.00 | 0.00 | 90 | 1015.9 |
| 20260506135535 | 52 | 54 | 1.0 | 3.0 | 0.00 | 0.00 | 0.00 | 90 | 1016.0 |
| 20260506135034 | 52 | 39 | 1.0 | 3.0 | 0.00 | 0.00 | 0.00 | 89 | 1015.9 |
| 20260506134555 | 52 | 35 | 2.0 | 6.0 | 0.00 | 0.00 | 0.00 | 89 | 1015.9 |
| 20260506134034 | 52 | 72 | 2.0 | 3.0 | 0.00 | 0.00 | 0.00 | 89 | 1015.7 |
| 20260506133555 | 52 | 48 | 2.0 | 5.0 | 0.00 | 0.00 | 0.00 | 90 | 1015.1 |
| 20260506133035 | 52 | 46 | 2.0 | 5.0 | 0.00 | 0.00 | 0.00 | 89 | 1014.8 |
| 20260506132535 | 51 | 38 | 2.0 | 5.0 | 0.00 | 0.00 | 0.00 | 90 | 1014.5 |
| 20260506132055 | 51 | 20 | 3.0 | 8.0 | 0.00 | 0.00 | 0.00 | 90 | 1014.5 |
| 20260506131535 | 51 | 60 | 3.0 | 6.0 | 0.00 | 0.00 | 0.00 | 90 | 1014.5 |
| 20260506131034 | 51 | 32 | 3.0 | 5.0 | 0.00 | 0.00 | 0.00 | 90 | 1014.7 |
| 20260506130534 | 51 | 75 | 1.0 | 3.0 | 0.00 | 0.00 | 0.00 | 90 | 1014.8 |
| 20260506130035 | 51 | 15 | 2.0 | 6.0 | 0.00 | 0.00 | 0.00 | 90 | 1014.5 |
| 20260506125534 | 51 | 59 | 1.0 | 3.0 | 0.00 | 0.00 | 0.00 | 91 | 1014.4 |
| 20260506125034 | 51 | 33 | 3.0 | 5.0 | 0.00 | 0.00 | 0.00 | 90 | 1014.2 |
| 20260506124534 | 51 | 23 | 3.0 | 6.0 | 0.00 | 0.00 | 0.00 | 90 | 1014.3 |
| 20260506124034 | 51 | 19 | 2.0 | 5.0 | 0.00 | 0.00 | 0.00 | 90 | 1014.2 |
| 20260506123531 | 51 | 21 | 2.0 | 6.0 | 0.00 | 0.00 | 0.00 | 90 | 1014.1 |
| 20260506123114 | 51 | 26 | 3.0 | 6.0 | 0.00 | 0.00 | 0.00 | 89 | 1014.1 |
| 20260506122554 | 51 | 34 | 3.0 | 6.0 | 0.00 | 0.00 | 0.00 | 89 | 1014.4 |
| 20260506122055 | 51 | 23 | 3.0 | 7.0 | 0.00 | 0.00 | 0.00 | 89 | 1014.2 |
| 20260506121531 | 51 | 35 | 2.0 | 5.0 | 0.00 | 0.00 | 0.00 | 89 | 1014.1 |
| 20260506121115 | 52 | 35 | 3.0 | 6.0 | 0.00 | 0.00 | 0.00 | 89 | 1013.9 |
| 20260506120554 | 52 | 55 | 1.0 | 2.0 | 0.00 | 0.00 | 0.00 | 89 | 1014.0 |
| 20260506120056 | 52 | 32 | 2.0 | 5.0 | 0.00 | 0.00 | 0.00 | 88 | 1014.1 |
| 20260506115535 | 52 | 40 | 1.0 | 3.0 | 0.00 | 0.00 | 0.00 | 88 | 1014.1 |
| 20260506115034 | 52 | 37 | 2.0 | 5.0 | 0.00 | 0.00 | 0.00 | 88 | 1014.1 |
| 20260506114523 | 52 | 22 | 3.0 | 6.0 | 0.00 | 0.00 | 0.00 | 87 | 1013.9 |
| 20260506114050 | 52 | 28 | 4.0 | 8.0 | 0.00 | 0.00 | 0.00 | 86 | 1013.8 |
| 20260506113534 | 53 | 19 | 2.0 | 5.0 | 0.00 | 0.00 | 0.00 | 85 | 1013.7 |
| 20260506113035 | 53 | 34 | 2.0 | 5.0 | 0.00 | 0.00 | 0.00 | 85 | 1013.6 |
| 20260506112534 | 53 | 19 | 3.0 | 6.0 | 0.00 | 0.00 | 0.00 | 84 | 1013.4 |
| 20260506112039 | 53 | 36 | 3.0 | 5.0 | 0.00 | 0.00 | 0.00 | 84 | 1013.3 |
| 20260506111603 | 53 | 40 | 2.0 | 5.0 | 0.00 | 0.00 | 0.00 | 83 | 1013.1 |
| 20260506111102 | 54 | 39 | 2.0 | 5.0 | 0.00 | 0.00 | 0.00 | 82 | 1013.2 |
| 20260506110534 | 54 | 29 | 2.0 | 5.0 | 0.00 | 0.00 | 0.00 | 82 | 1012.9 |
| 20260506110055 | 54 | 38 | 2.0 | 6.0 | 0.00 | 0.00 | 0.00 | 81 | 1012.7 |
| 20260506105534 | 54 | 39 | 2.0 | 5.0 | 0.00 | 0.00 | 0.00 | 81 | 1012.8 |
| 20260506105034 | 54 | 34 | 2.0 | 5.0 | 0.00 | 0.00 | 0.00 | 81 | 1012.7 |
| 20260506104523 | 54 | 43 | 2.0 | 5.0 | 0.00 | 0.00 | 0.00 | 81 | 1012.7 |
| 20260506104050 | 54 | 57 | 2.0 | 6.0 | 0.00 | 0.00 | 0.00 | 81 | 1012.7 |
| 20260506103534 | 55 | 52 | 2.0 | 3.0 | 0.00 | 0.00 | 0.00 | 81 | 1012.6 |
| 20260506103055 | 55 | 39 | 3.0 | 7.0 | 0.00 | 0.00 | 0.00 | 80 | 1012.6 |
| 20260506102534 | 55 | 33 | 2.0 | 6.0 | 0.00 | 0.00 | 0.00 | 80 | 1012.5 |
| 20260506102019 | 55 | 51 | 4.0 | 7.0 | 0.00 | 0.00 | 0.00 | 80 | 1012.4 |
| 20260506101535 | 55 | 57 | 1.0 | 3.0 | 0.00 | 0.00 | 0.00 | 81 | 1012.4 |
| 20260506101035 | 55 | 41 | 2.0 | 3.0 | 0.00 | 0.00 | 0.00 | 80 | 1012.2 |
| 20260506100534 | 55 | 38 | 2.0 | 3.0 | 0.00 | 0.00 | 0.00 | 80 | 1012.1 |
| 20260506100034 | 55 | 35 | 2.0 | 5.0 | 0.00 | 0.00 | 0.00 | 80 | 1012.1 |
| 20260506095654 | 55 | 28 | 2.0 | 5.0 | 0.00 | 0.00 | 0.00 | 80 | 1012.1 |
| 20260506095058 | 55 | 38 | 2.0 | 5.0 | 0.00 | 0.00 | 0.00 | 80 | 1012.0 |
| 20260506094535 | 56 | 41 | 2.0 | 5.0 | 0.00 | 0.00 | 0.00 | 80 | 1011.9 |
| 20260506094034 | 56 | 26 | 2.0 | 5.0 | 0.00 | 0.00 | 0.00 | 81 | 1011.8 |
| 20260506093554 | 56 | 48 | 2.0 | 2.0 | 0.00 | 0.00 | 0.00 | 81 | 1011.6 |
| 20260506093035 | 56 | 56 | 1.0 | 3.0 | 0.00 | 0.00 | 0.00 | 81 | 1011.9 |
| 20260506092535 | 56 | 21 | 2.0 | 3.0 | 0.00 | 0.00 | 0.00 | 81 | 1011.8 |
| 20260506092019 | 56 | 45 | 2.0 | 3.0 | 0.00 | 0.00 | 0.00 | 81 | 1011.5 |
| 20260506091603 | 56 | 48 | 1.0 | 3.0 | 0.00 | 0.00 | 0.00 | 81 | 1011.3 |
| 20260506091035 | 56 | 29 | 2.0 | 5.0 | 0.00 | 0.00 | 0.00 | 81 | 1011.5 |
| 20260506090534 | 56 | 38 | 2.0 | 5.0 | 0.00 | 0.00 | 0.00 | 81 | 1011.6 |
| 20260506090035 | 56 | 36 | 2.0 | 5.0 | 0.00 | 0.00 | 0.00 | 81 | 1011.6 |
| 20260506085618 | 56 | 52 | 1.0 | 3.0 | 0.00 | 0.00 | 0.00 | 81 | 1011.4 |
| 20260506085058 | 56 | 3 | 1.0 | 5.0 | 0.00 | 0.00 | 0.00 | 81 | 1011.3 |
| 20260506084539 | 56 | 17 | 1.0 | 3.0 | 0.00 | 0.00 | 0.00 | 81 | 1011.4 |
| 20260506084034 | 56 | 43 | 2.0 | 3.0 | 0.00 | 0.00 | 0.00 | 82 | 1011.2 |
| 20260506083534 | 56 | 39 | 2.0 | 5.0 | 0.00 | 0.00 | 0.00 | 81 | 1011.3 |
| 20260506083055 | 56 | 47 | 2.0 | 5.0 | 0.00 | 0.00 | 0.00 | 81 | 1011.1 |
| 20260506082523 | 56 | 41 | 2.0 | 3.0 | 0.00 | 0.00 | 0.00 | 81 | 1011.2 |
| 20260506082106 | 56 | 44 | 2.0 | 3.0 | 0.00 | 0.00 | 0.00 | 81 | 1011.1 |
| 20260506081547 | 56 | 52 | 2.0 | 3.0 | 0.00 | 0.00 | 0.00 | 81 | 1011.4 |
| 20260506081034 | 56 | 27 | 2.0 | 3.0 | 0.00 | 0.00 | 0.00 | 81 | 1011.3 |
| 20260506080534 | 56 | 41 | 2.0 | 3.0 | 0.00 | 0.00 | 0.00 | 81 | 1011.1 |
| 20260506073035 | 57 | 45 | 1.0 | 3.0 | 0.00 | 0.00 | 0.00 | 83 | 1011.3 |
| 20260506072534 | 57 | 62 | 1.0 | 2.0 | 0.00 | 0.00 | 0.00 | 83 | 1011.1 |
| 20260506072019 | 56 | 306 | 0.0 | 2.0 | 0.00 | 0.00 | 0.00 | 83 | 1011.1 |
| 20260506071603 | 56 | 67 | 1.0 | 1.0 | 0.00 | 0.00 | 0.00 | 83 | 1011.0 |
| 20260506071035 | 56 | 47 | 2.0 | 6.0 | 0.00 | 0.00 | 0.00 | 83 | 1010.7 |
| 20260506070534 | 56 | 54 | 2.0 | 5.0 | 0.00 | 0.00 | 0.00 | 83 | 1010.6 |
| 20260506062034 | 58 | 39 | 2.0 | 6.0 | 0.00 | 0.00 | 0.00 | 82 | 1011.0 |
| 20260506061618 | 58 | 40 | 1.0 | 3.0 | 0.00 | 0.00 | 0.00 | 83 | 1010.9 |
| 20260506061042 | 58 | 20 | 2.0 | 6.0 | 0.00 | 0.00 | 0.00 | 83 | 1010.8 |
| 20260506060534 | 58 | 40 | 2.0 | 2.0 | 0.00 | 0.00 | 0.00 | 84 | 1010.6 |
| 20260506051034 | 59 | 50 | 2.0 | 3.0 | 0.00 | 0.00 | 0.00 | 84 | 1011.0 |
| 20260506050534 | 59 | 46 | 2.0 | 5.0 | 0.00 | 0.00 | 0.00 | 84 | 1011.0 |